KC8YVF-1 Weather Reports


Display with metric or nautical units.
time (UTC)temp
F
wind
direction
speed
MPH
gust
MPH
rain 1hr
in
rain 24hr
in
rain mn
in
humidity
%
barometer
mb
20260902073857 76 203 0.0 0.0 0.02 0.02 0.02 88 1000.0
20260902072358 76 225 0.0 0.0 0.00 0.00 0.00 88 1000.0
20260902070858 76 225 0.0 0.0 0.00 0.00 0.00 88 1000.0
20260902065357 76 225 0.0 0.0 0.00 0.00 0.00 88 1000.0
20260902063858 76 248 0.0 0.0 0.00 0.00 0.00 88 999.9
20260902062358 76 248 0.0 0.0 0.00 0.00 0.00 88 999.9
20260902060857 76 248 0.0 0.0 0.00 0.00 0.00 88 1000.1
20260902055358 76 248 0.0 0.0 0.00 0.00 0.00 88 1000.3
20260902053857 76 248 0.0 0.0 0.00 0.00 0.00 87 1000.1
20260902052357 76 225 0.0 0.0 0.00 0.00 0.00 87 1000.0
20260902050857 76 225 0.0 0.0 0.00 0.00 0.00 87 1000.1
20260902045357 76 225 0.0 0.0 0.00 0.00 0.00 86 1000.0
20260902043857 77 225 0.0 0.0 0.00 0.00 0.00 87 1000.3
20260902042357 77 225 0.0 0.0 0.00 0.00 0.00 86 1000.3
20260902040857 78 248 0.0 0.0 0.00 0.00 0.00 86 1000.0
20260902035357 78 248 0.0 0.0 0.00 0.00 0.00 85 1000.0
20260902033857 78 248 0.0 0.0 0.00 0.00 0.00 86 1000.0
20260902032357 79 248 0.0 0.0 0.00 0.00 0.00 85 1000.0
20260902030858 79 248 0.0 0.0 0.00 0.00 0.00 85 1000.3
20260902025358 79 203 0.0 0.0 0.00 0.00 0.00 84 1000.3
20260902023857 80 248 0.0 0.0 0.00 0.00 0.00 84 1000.0
20260902022357 80 225 0.0 0.0 0.00 0.00 0.00 83 999.6
20260902020856 80 225 0.0 0.0 0.00 0.00 0.00 82 1000.0
20260902015358 81 225 0.0 0.0 0.00 0.00 0.00 81 1000.0
20260902013856 82 248 0.0 0.0 0.00 0.00 0.00 81 999.6
20260902012357 82 248 0.0 0.0 0.00 0.00 0.00 80 1000.0
20260902010858 83 225 0.0 0.0 0.00 0.00 0.00 79 1000.0
20260902005358 83 248 0.0 0.0 0.00 0.00 0.00 77 999.6
20260902003858 84 248 0.0 0.0 0.00 0.00 0.00 77 999.6
20260902002357 85 158 0.0 0.0 0.00 0.00 0.00 76 999.5
20260902000858 86 203 0.0 0.0 0.00 0.00 0.00 74 999.5
20260901235357 87 135 0.0 0.0 0.00 0.00 0.00 73 999.5
20260901233857 87 270 0.0 0.0 0.00 0.00 0.00 71 999.6
20260901232358 88 248 0.0 0.0 0.00 0.00 0.00 71 999.6
20260901230857 89 248 0.0 0.0 0.00 0.00 0.00 68 999.9
20260901225357 90 248 0.0 0.0 0.00 0.00 0.00 67 1000.0
20260901223858 92 270 0.0 0.0 0.00 0.00 0.00 66 1000.0
20260901222357 92 270 0.0 0.0 0.00 0.00 0.00 65 999.6
20260901220857 93 270 0.0 0.0 0.00 0.00 0.00 64 999.6
20260901215357 93 270 0.0 0.0 0.00 0.00 0.00 64 999.3
20260901213858 93 248 0.0 0.0 0.00 0.00 0.00 64 999.3
20260901212358 93 248 0.0 0.0 0.00 0.00 0.00 65 999.3
20260901210858 92 270 0.0 0.0 0.00 0.00 0.00 69 999.3
20260901205357 91 225 0.0 0.0 0.00 0.00 0.00 69 999.6
20260901203857 92 248 0.0 0.0 0.00 0.00 0.00 67 999.6
20260901202358 93 270 0.0 0.0 0.00 0.00 0.00 66 999.6
20260901200858 93 158 0.0 0.0 0.00 0.00 0.00 66 999.9
20260901195357 92 270 0.0 0.0 0.00 0.00 0.00 66 1000.0
20260901193857 93 248 0.0 0.0 0.00 0.00 0.00 66 1000.0
20260901192357 93 315 0.0 0.0 0.00 0.00 0.00 65 1000.0
20260901190858 94 248 0.0 0.0 0.00 0.00 0.00 64 1000.0
20260901185358 94 248 2.0 3.0 0.00 0.00 0.00 66 1000.3
20260901183857 93 270 0.0 0.0 0.00 0.00 0.00 67 1000.3
20260901182357 93 248 0.0 0.0 0.00 0.00 0.00 69 1000.1
20260901180857 92 293 0.0 0.0 0.00 0.00 0.00 70 1000.3
20260901175358 91 225 0.0 0.0 0.00 0.00 0.00 71 1000.4
20260901173857 91 180 0.0 0.0 0.00 0.00 0.00 71 1000.3
20260901172359 90 180 0.0 0.0 0.00 0.00 0.00 73 1000.4
20260901170858 89 203 0.0 0.0 0.00 0.00 0.00 74 1000.6
20260901165358 89 180 0.0 0.0 0.00 0.00 0.00 76 1000.6
20260901163858 87 248 0.0 0.0 0.00 0.00 0.00 78 1000.9
20260901162358 86 248 0.0 0.0 0.00 0.00 0.00 80 1000.6
20260901160857 84 248 0.0 0.0 0.00 0.00 0.00 82 1000.8
20260901155358 83 248 0.0 0.0 0.00 0.02 0.00 84 1001.0
20260901153857 82 203 0.0 0.0 0.00 0.04 0.00 85 1001.0
20260901152359 81 315 0.0 0.0 0.00 0.06 0.00 85 1001.0
20260901150857 80 270 0.0 0.0 0.00 0.06 0.00 87 1001.3
20260901145358 79 293 0.0 0.0 0.00 0.06 0.00 87 1001.0
20260901143857 78 315 0.0 0.0 0.00 0.08 0.00 88 1001.2
20260901142357 78 293 0.0 0.0 0.00 0.10 0.00 89 1001.0
20260901140858 77 293 0.0 0.0 0.00 0.10 0.00 89 1001.0
20260901135357 76 248 0.0 0.0 0.00 0.10 0.00 96 1001.0
20260901133858 75 248 0.0 0.0 0.00 0.10 0.00 94 1001.0
20260901132358 75 248 0.0 0.0 0.00 0.10 0.00 96 1001.0
20260901130858 75 270 0.0 0.0 0.00 0.10 0.00 96 1001.3
20260901125357 74 225 0.0 0.0 0.00 0.10 0.00 91 1001.3
20260901123858 74 225 0.0 0.0 0.00 0.10 0.00 92 1001.0
20260901122357 73 225 0.0 0.0 0.00 0.10 0.00 92 1001.0
20260901120858 71 225 0.0 0.0 0.00 0.10 0.00 92 1001.0
20260901115358 70 225 0.0 0.0 0.00 0.10 0.00 91 1000.8
20260901113858 70 225 0.0 0.0 0.00 0.10 0.00 91 1000.6
20260901112358 70 225 0.0 0.0 0.00 0.10 0.00 91 1000.3
20260901110857 69 225 0.0 0.0 0.00 0.10 0.00 91 1000.3
20260901105358 69 225 0.0 0.0 0.00 0.10 0.00 91 1000.3
20260901103858 69 225 0.0 0.0 0.00 0.10 0.00 91 1000.3
20260901102357 69 225 0.0 0.0 0.00 0.10 0.00 91 1000.0
20260901100857 69 225 0.0 0.0 0.00 0.14 0.00 96 1000.1
20260901095357 70 225 0.0 0.0 0.00 0.14 0.00 96 1000.3
20260901093857 70 225 0.0 0.0 0.00 0.14 0.00 96 1000.3
20260901092357 70 225 0.0 0.0 0.00 0.14 0.00 96 1000.2
20260901090857 70 225 0.0 0.0 0.00 0.14 0.00 96 1000.0
20260901085358 70 225 0.0 0.0 0.00 0.14 0.00 96 1000.0
20260901083857 70 225 0.0 0.0 0.00 0.14 0.00 96 1000.3
20260901082358 70 225 0.0 0.0 0.00 0.14 0.00 96 1000.0
20260901080858 70 225 0.0 0.0 0.00 0.14 0.00 89 1000.0
20260901075359 70 225 0.0 0.0 0.00 0.14 0.00 89 1000.0